{"data":{"norad_id":63347,"intl_designator":"2025-059D","name":"YUNYAO-1 46","alt_names":[],"object_type":"PAYLOAD","status":"ACTIVE","operator":null,"country":"PRC","launch_date":"2025-03-21","launch_site_code":"JSC","launch_vehicle":null,"mission":null,"orbit_class":"UNKNOWN","rcs_meters":null,"size_class":null,"mass_kg":null,"dimensions":null,"purposes":[],"wikipedia_slug":null,"has_3d_model":false,"image_url":null,"decayed_at":null,"tle_current":{"epoch":"2026-05-25T04:23:16.703808Z","epoch_age_seconds":59539,"freshness":"FRESH","line1":"1 63347U 25059D   26145.18283222  .00003342  00000+0  20472-3 0  9999","line2":"2 63347  97.6118 326.7058 0011017 219.4227 140.6202 15.10838136 64826","mean_motion":15.10838136,"eccentricity":0.0011017,"inclination_deg":97.6118,"raan_deg":326.7058,"arg_perigee_deg":219.4227,"mean_anomaly_deg":140.6202,"bstar":0.00020472,"rev_number":6482,"period_min":95.311335191237,"perigee_km":526.02791111595,"apogee_km":541.25732632784,"semimajor_km":6911.7796187219,"source":"CELESTRAK","updated_at":"2026-05-25T13:38:03.657517Z"}}}